• In Österreich
  • Länderverzeichnis
  • Für 7 Tage
  • Wassertemperatur
  • Satellitenkarten
  • Wetterkarte
  • News
  • Widgets
  • user-avatar
    Anmelden

    Stündliche Wetter Varto

    Heute, 17 Oktober, Mittwoch

    Zeit Temperatur Niederschläge Wind Luftdruck Luftfeuchtigkeit
    00:00 +13°C° 0.1 mm 1 m/S 621 mmHg 50%
    01:00 +12°C° 0 mm 1 m/S 621 mmHg 50%
    02:00 +12°C° 0 mm 1 m/S 621 mmHg 51%
    03:00 +12°C° 0 mm 2 m/S 621 mmHg 50%
    04:00 +10°C° 0 mm 2 m/S 621 mmHg 51%
    05:00 +10°C° 0 mm 2 m/S 621 mmHg 52%
    06:00 +9°C° 0 mm 2 m/S 621 mmHg 53%
    07:00 +12°C° 0 mm 2 m/S 622 mmHg 48%
    08:00 +14°C° 0 mm 2 m/S 622 mmHg 43%
    09:00 +16°C° 0 mm 2 m/S 623 mmHg 39%
    10:00 +17°C° 0 mm 2 m/S 623 mmHg 36%
    11:00 +18°C° 0 mm 2 m/S 623 mmHg 33%
    12:00 +19°C° 0 mm 2 m/S 623 mmHg 31%
    13:00 +19°C° 0 mm 2 m/S 623 mmHg 30%
    14:00 +20°C° 0 mm 2 m/S 623 mmHg 29%
    15:00 +21°C° 0 mm 1 m/S 623 mmHg 28%
    16:00 +20°C° 0.1 mm 1 m/S 622 mmHg 32%
    17:00 +18°C° 0.1 mm 1 m/S 622 mmHg 37%
    18:00 +15°C° 0.1 mm 1 m/S 621 mmHg 41%
    19:00 +14°C° 0 mm 1 m/S 621 mmHg 44%
    20:00 +14°C° 0 mm 1 m/S 621 mmHg 47%
    21:00 +12°C° 0 mm 0 m/S 621 mmHg 50%
    22:00 +11°C° 0 mm 0 m/S 620 mmHg 51%
    23:00 +12°C° 0 mm 1 m/S 620 mmHg 52%

    Morgen, 18 Oktober, Donnerstag

    Zeit Temperatur Niederschläge Wind Luftdruck Luftfeuchtigkeit
    00:00 +11°C° 0 mm 1 m/S 620 mmHg 53%
    01:00 +11°C° 0 mm 1 m/S 620 mmHg 55%
    02:00 +11°C° 0 mm 1 m/S 620 mmHg 56%
    03:00 +10°C° 0 mm 1 m/S 620 mmHg 57%
    04:00 +10°C° 0 mm 1 m/S 620 mmHg 58%
    05:00 +10°C° 0 mm 1 m/S 620 mmHg 60%
    06:00 +9°C° 0 mm 1 m/S 619 mmHg 61%
    07:00 +11°C° 0 mm 1 m/S 620 mmHg 54%
    08:00 +13°C° 0 mm 1 m/S 621 mmHg 47%
    09:00 +15°C° 0 mm 1 m/S 622 mmHg 40%
    10:00 +18°C° 0 mm 1 m/S 622 mmHg 36%
    11:00 +19°C° 0 mm 1 m/S 623 mmHg 32%
    12:00 +21°C° 0 mm 1 m/S 623 mmHg 29%
    13:00 +21°C° 0 mm 1 m/S 623 mmHg 27%
    14:00 +22°C° 0 mm 1 m/S 623 mmHg 26%
    15:00 +22°C° 0 mm 1 m/S 622 mmHg 25%
    16:00 +20°C° 0 mm 1 m/S 622 mmHg 29%
    17:00 +19°C° 0 mm 1 m/S 621 mmHg 32%
    18:00 +16°C° 0 mm 1 m/S 620 mmHg 36%
    19:00 +15°C° 0 mm 1 m/S 620 mmHg 39%
    20:00 +14°C° 0 mm 1 m/S 620 mmHg 42%
    21:00 +12°C° 0 mm 0 m/S 620 mmHg 45%
    22:00 +12°C° 0 mm 0 m/S 620 mmHg 47%
    23:00 +11°C° 0 mm 0 m/S 620 mmHg 49%

    übermorgen, 19 Oktober, Freitag

    Zeit Temperatur Niederschläge Wind Luftdruck Luftfeuchtigkeit
    00:00 +10°C° 0 mm 0 m/S 619 mmHg 51%
    01:00 +10°C° 0 mm 0 m/S 619 mmHg 52%
    02:00 +10°C° 0 mm 0 m/S 619 mmHg 54%
    03:00 +9°C° 0 mm 0 m/S 619 mmHg 56%
    04:00 +9°C° 0 mm 0 m/S 619 mmHg 57%
    05:00 +9°C° 0 mm 0 m/S 619 mmHg 58%
    06:00 +8°C° 0 mm 0 m/S 619 mmHg 60%
    07:00 +12°C° 0 mm 1 m/S 620 mmHg 52%
    08:00 +14°C° 0 mm 1 m/S 621 mmHg 45%
    09:00 +16°C° 0 mm 1 m/S 622 mmHg 37%
    10:00 +19°C° 0 mm 1 m/S 622 mmHg 34%
    11:00 +20°C° 0 mm 1 m/S 622 mmHg 31%
    12:00 +21°C° 0 mm 1 m/S 623 mmHg 27%
    13:00 +21°C° 0 mm 2 m/S 622 mmHg 26%
    14:00 +21°C° 0 mm 2 m/S 622 mmHg 25%
    15:00 +21°C° 0 mm 3 m/S 622 mmHg 24%
    16:00 +20°C° 0.1 mm 2 m/S 621 mmHg 28%
    17:00 +18°C° 0.1 mm 2 m/S 621 mmHg 32%
    18:00 +16°C° 0.1 mm 2 m/S 620 mmHg 36%
    19:00 +15°C° 0.1 mm 2 m/S 620 mmHg 39%
    20:00 +14°C° 0.1 mm 1 m/S 620 mmHg 41%
    21:00 +13°C° 0.1 mm 1 m/S 620 mmHg 44%
    22:00 +13°C° 0 mm 1 m/S 619 mmHg 46%
    23:00 +12°C° 0 mm 1 m/S 619 mmHg 48%

    20 Oktober, Samstag

    Zeit Temperatur Niederschläge Wind Luftdruck Luftfeuchtigkeit
    00:00 +12°C° 0 mm 1 m/S 619 mmHg 50%
    01:00 +10°C° 0 mm 0 m/S 619 mmHg 52%
    02:00 +10°C° 0 mm 0 m/S 619 mmHg 53%
    03:00 +9°C° 0 mm 0 m/S 618 mmHg 55%
    04:00 +9°C° 0 mm 0 m/S 618 mmHg 56%
    05:00 +10°C° 0 mm 1 m/S 618 mmHg 57%
    06:00 +9°C° 0 mm 1 m/S 618 mmHg 58%
    07:00 +12°C° 0 mm 1 m/S 619 mmHg 51%
    08:00 +14°C° 0 mm 1 m/S 620 mmHg 44%
    09:00 +16°C° 0 mm 1 m/S 621 mmHg 37%
    10:00 +18°C° 0 mm 2 m/S 622 mmHg 34%
    11:00 +19°C° 0 mm 3 m/S 622 mmHg 32%
    12:00 +20°C° 0 mm 3 m/S 622 mmHg 29%
    13:00 +20°C° 0 mm 4 m/S 622 mmHg 29%
    14:00 +20°C° 0 mm 4 m/S 621 mmHg 29%
    15:00 +20°C° 0 mm 5 m/S 621 mmHg 29%
    16:00 +19°C° 0.1 mm 4 m/S 621 mmHg 34%
    17:00 +17°C° 0.1 mm 3 m/S 620 mmHg 39%
    18:00 +16°C° 0.1 mm 2 m/S 620 mmHg 44%
    19:00 +15°C° 0.1 mm 2 m/S 619 mmHg 48%
    20:00 +14°C° 0.1 mm 1 m/S 619 mmHg 52%
    21:00 +13°C° 0.1 mm 1 m/S 619 mmHg 56%
    22:00 +13°C° 0.1 mm 1 m/S 619 mmHg 58%
    23:00 +13°C° 0.1 mm 1 m/S 619 mmHg 60%

    21 Oktober, Sonntag

    Zeit Temperatur Niederschläge Wind Luftdruck Luftfeuchtigkeit
    00:00 +12°C° 0.1 mm 1 m/S 618 mmHg 62%
    01:00 +12°C° 0.1 mm 1 m/S 618 mmHg 65%
    02:00 +12°C° 0.1 mm 1 m/S 618 mmHg 67%
    03:00 +11°C° 0.1 mm 1 m/S 618 mmHg 69%
    04:00 +11°C° 0.2 mm 1 m/S 618 mmHg 71%
    05:00 +11°C° 0.2 mm 1 m/S 618 mmHg 73%
    06:00 +11°C° 0.2 mm 1 m/S 618 mmHg 75%
    07:00 +12°C° 0.1 mm 1 m/S 618 mmHg 72%
    08:00 +13°C° 0.1 mm 1 m/S 618 mmHg 68%
    09:00 +13°C° 0.1 mm 1 m/S 619 mmHg 65%
    10:00 +14°C° 0.2 mm 2 m/S 619 mmHg 60%
    11:00 +14°C° 0.2 mm 3 m/S 619 mmHg 55%
    12:00 +16°C° 0.2 mm 3 m/S 619 mmHg 50%
    13:00 +17°C° 0.2 mm 4 m/S 619 mmHg 49%
    14:00 +17°C° 0.2 mm 4 m/S 619 mmHg 48%
    15:00 +17°C° 0.2 mm 4 m/S 618 mmHg 47%
    16:00 +15°C° 0.4 mm 4 m/S 618 mmHg 53%
    17:00 +14°C° 0.4 mm 3 m/S 618 mmHg 59%
    18:00 +13°C° 0.4 mm 2 m/S 617 mmHg 66%
    19:00 +13°C° 0.3 mm 2 m/S 617 mmHg 69%
    20:00 +12°C° 0.3 mm 2 m/S 617 mmHg 73%
    21:00 +12°C° 0.3 mm 1 m/S 617 mmHg 77%
    22:00 +12°C° 0.2 mm 1 m/S 617 mmHg 78%
    23:00 +11°C° 0.2 mm 1 m/S 617 mmHg 80%

    22 Oktober, Montag

    Zeit Temperatur Niederschläge Wind Luftdruck Luftfeuchtigkeit
    00:00 +11°C° 0.2 mm 1 m/S 617 mmHg 82%
    01:00 +11°C° 0.1 mm 1 m/S 617 mmHg 83%
    02:00 +11°C° 0.1 mm 1 m/S 617 mmHg 84%
    03:00 +10°C° 0.1 mm 1 m/S 617 mmHg 85%
    04:00 +10°C° 0 mm 1 m/S 617 mmHg 87%
    05:00 +9°C° 0 mm 1 m/S 617 mmHg 89%
    06:00 +9°C° 0 mm 1 m/S 617 mmHg 91%
    07:00 +9°C° 0 mm 2 m/S 618 mmHg 83%
    08:00 +12°C° 0 mm 2 m/S 619 mmHg 75%
    09:00 +13°C° 0 mm 2 m/S 620 mmHg 68%
    10:00 +13°C° 0 mm 3 m/S 620 mmHg 61%
    11:00 +14°C° 0 mm 4 m/S 621 mmHg 54%
    12:00 +15°C° 0 mm 5 m/S 621 mmHg 47%
    13:00 +16°C° 0.1 mm 5 m/S 621 mmHg 47%
    14:00 +16°C° 0.1 mm 5 m/S 621 mmHg 46%
    15:00 +16°C° 0.1 mm 5 m/S 621 mmHg 45%
    16:00 +14°C° 0 mm 4 m/S 621 mmHg 52%
    17:00 +13°C° 0 mm 3 m/S 620 mmHg 58%
    18:00 +13°C° 0 mm 2 m/S 620 mmHg 65%
    19:00 +12°C° 0 mm 2 m/S 620 mmHg 70%
    20:00 +10°C° 0 mm 2 m/S 620 mmHg 74%
    21:00 +11°C° 0 mm 1 m/S 620 mmHg 78%
    22:00 +10°C° 0 mm 1 m/S 620 mmHg 80%
    23:00 +10°C° 0 mm 1 m/S 620 mmHg 81%
    Mehr zeigen